Date_and_time,latitude,longitude,wind_speed,RelWindDirFrom,WindDirFrom,air_pressure,air_temperature,relative_humidity,Temp,platform_speed_wrt_ground,air_pressure_at_mean_sea_level,platform_orientation
2018-07-08 00:00,50.91173,-96.982525,10.2,17.7,243,977.61,32.6,44,28.22,0.0,1002.18,0.0
2018-07-08 00:10,50.91173,-96.9825266666667,9.9,16.5,244,977.60,32.8,42,28.15,0.0,1002.16,0.0
2018-07-08 00:20,50.9117283333333,-96.9825266666667,10.6,17.3,258,977.67,32.5,42,28.12,0.0,1002.23,0.0
2018-07-08 00:30,50.9117333333333,-96.9825366666667,7.9,16.0,264,977.81,31.7,42,27.95,0.0,1002.41,0.0
2018-07-08 00:40,50.9117383333333,-96.9825316666667,9.5,14.2,268,977.76,31.6,36,27.70,0.0,1002.36,0.0
2018-07-08 00:50,50.911715,-96.9825266666667,9.0,12.9,266,978.01,31.4,35,27.53,0.0,1002.63,0.0
2018-07-08 01:00,50.9117316666667,-96.9825216666667,8.7,14.3,265,978.19,30.8,36,27.37,0.0,1002.83,246.1
2018-07-08 01:10,50.9117366666667,-96.9825216666667,7.0,12.6,257,978.34,30.6,38,27.19,0.0,1003.00,246.1
2018-07-08 01:20,50.9117333333333,-96.982525,7.6,12.7,251,978.36,30.6,38,27.01,0.0,1003.03,246.1
2018-07-08 01:30,50.9117333333333,-96.9825266666667,7.6,11.8,252,978.38,30.4,40,26.91,0.0,1003.08,246.1
2018-07-08 01:40,50.9117333333333,-96.9825266666667,6.4,10.6,246,978.41,30.1,41,26.84,0.0,1003.13,246.1
2018-07-08 01:50,50.911765,-96.9825483333333,5.8,10.5,251,978.70,29.6,44,26.70,0.0,1003.46,246.1
2018-07-08 02:00,50.9117416666667,-96.982535,6.2,9.6,251,978.77,29.1,46,26.54,0.0,1003.53,347.1
2018-07-08 02:10,50.9117316666667,-96.9825983333333,5.4,8.7,244,978.90,28.7,48,26.37,0.0,1003.70,347.1
2018-07-08 02:20,50.9117483333333,-96.98253,4.4,7.6,241,979.06,28.2,49,26.18,0.0,1003.91,347.1
2018-07-08 02:30,50.9117483333333,-96.982525,3.3,4.7,241,979.27,27.7,51,25.96,0.0,1004.15,347.1
2018-07-08 02:40,50.9117516666667,-96.9825333333333,3.9,7.0,244,979.49,27.2,53,25.76,0.0,1004.41,347.1
2018-07-08 02:50,50.9117316666667,-96.9825266666667,4.9,7.7,252,979.80,26.8,54,25.59,0.0,1004.77,347.1
2018-07-08 03:00,50.9117383333333,-96.9825316666667,5.1,8.3,255,980.07,26.4,55,25.45,0.0,1005.07,360.0
2018-07-08 03:10,50.91174,-96.98253,5.9,8.7,249,980.27,26.1,56,25.33,0.0,1005.29,360.0
2018-07-08 03:20,50.91174,-96.9825283333333,5.5,8.1,249,980.46,25.8,57,25.22,0.0,1005.51,360.0
2018-07-08 03:30,50.911745,-96.9825233333333,5.2,8.5,250,980.59,25.5,57,25.12,0.0,1005.66,360.0
2018-07-08 03:40,50.9117216666667,-96.9825366666667,5.8,8.7,250,980.68,25.4,58,25.03,0.0,1005.78,360.0
2018-07-08 03:50,50.9117333333333,-96.9825266666667,5.5,9.5,251,980.76,25.1,59,24.95,0.0,1005.90,360.0
2018-07-08 04:00,50.9117333333333,-96.9825216666667,5.9,9.6,246,980.83,24.9,60,24.85,0.0,1006.00,0.0
2018-07-08 04:10,50.9117316666667,-96.98252,5.5,8.2,244,980.93,24.6,61,24.75,0.0,1006.14,0.0
2018-07-08 04:20,50.9117216666667,-96.9825133333333,6.0,9.7,246,980.97,24.6,61,24.68,0.0,1006.20,0.0
2018-07-08 04:30,50.9117316666667,-96.9825233333333,6.0,9.9,240,981.03,24.5,61,24.62,0.0,1006.29,0.0
2018-07-08 04:40,50.91173,-96.9825283333333,5.7,9.0,240,981.18,24.4,62,24.56,0.0,1006.46,0.0
2018-07-08 04:50,50.9117316666667,-96.9825283333333,5.3,8.7,239,981.26,24.4,62,24.51,0.0,1006.55,0.0
2018-07-08 05:00,50.911735,-96.98253,5.3,8.5,236,981.25,24.3,62,24.46,0.0,1006.56,132.1
2018-07-08 05:10,50.9117216666667,-96.9824883333333,5.3,7.9,239,981.26,24.2,61,24.41,0.0,1006.59,132.1
2018-07-08 05:20,50.9117233333333,-96.9825183333333,4.6,7.4,233,981.35,24.1,61,24.36,0.0,1006.70,132.1
2018-07-08 05:30,50.9117283333333,-96.9825183333333,4.2,7.2,229,981.38,24.0,61,24.32,0.0,1006.74,132.1
2018-07-08 05:40,50.9117283333333,-96.9825216666667,4.0,6.7,220,981.42,23.9,63,24.28,0.0,1006.80,132.1
2018-07-08 05:50,50.9117283333333,-96.98252,3.6,6.7,226,981.42,23.7,65,24.23,0.0,1006.81,132.1
2018-07-08 06:00,50.9117283333333,-96.98252,4.5,7.6,213,981.33,23.6,65,24.19,0.0,1006.73,167.1
2018-07-08 06:10,50.9117266666667,-96.98252,4.4,7.7,209,981.24,23.6,65,24.15,0.0,1006.65,167.1
2018-07-08 06:20,50.9117366666667,-96.9825183333333,4.4,6.3,207,981.17,23.3,67,24.10,0.0,1006.59,167.1
2018-07-08 06:30,50.911735,-96.9825216666667,5.1,7.5,205,981.13,23.1,68,24.04,0.0,1006.57,167.1
2018-07-08 06:40,50.9117316666667,-96.982525,4.8,7.5,209,981.05,22.9,69,23.98,0.0,1006.49,167.1
2018-07-08 06:50,50.9117316666667,-96.9825216666667,3.7,7.4,218,980.94,22.9,69,23.92,0.0,1006.38,167.1
2018-07-08 07:00,50.9117316666667,-96.982525,4.0,7.1,218,980.96,22.8,70,23.87,0.0,1006.41,270.0
2018-07-08 07:10,50.9117333333333,-96.9825233333333,4.2,7.0,215,980.86,22.9,70,23.83,0.0,1006.31,270.0
2018-07-08 07:20,50.911735,-96.982525,4.7,7.0,207,980.83,22.9,70,23.81,0.0,1006.28,270.0
2018-07-08 07:30,50.911735,-96.982525,4.7,8.3,213,980.86,22.7,71,23.78,0.0,1006.33,270.0
2018-07-08 07:40,50.9117333333333,-96.982525,4.4,7.0,213,980.92,22.5,73,23.73,0.0,1006.41,270.0
2018-07-08 07:50,50.9117316666667,-96.9825266666667,4.1,8.6,216,981.17,22.3,75,23.68,0.0,1006.68,270.0
2018-07-08 08:00,50.9117316666667,-96.982525,4.7,8.3,227,981.34,22.3,75,23.63,0.0,1006.85,360.0
2018-07-08 08:10,50.9117333333333,-96.982525,5.6,10.1,244,981.50,22.4,75,23.59,0.0,1007.02,360.0
2018-07-08 08:20,50.9117183333333,-96.9825333333333,5.8,10.5,245,981.60,22.4,75,23.56,0.0,1007.13,360.0
2018-07-08 08:30,50.911725,-96.9825283333333,7.1,12.5,253,981.70,22.5,74,23.52,0.0,1007.24,360.0
2018-07-08 08:40,50.911725,-96.9825316666667,6.2,10.0,243,981.95,22.4,74,23.50,0.0,1007.50,360.0
2018-07-08 08:50,50.911725,-96.98253,6.7,10.8,244,982.02,22.3,75,23.46,0.0,1007.58,360.0
2018-07-08 09:00,50.9117166666667,-96.9825116666667,7.6,11.5,254,981.91,22.4,74,23.43,0.0,1007.46,360.0
2018-07-08 09:10,50.91172,-96.9825133333333,8.2,12.6,252,981.94,22.2,74,23.39,0.0,1007.50,360.0
2018-07-08 09:20,50.9117333333333,-96.982525,7.2,10.7,254,981.95,22.0,75,23.33,0.0,1007.53,360.0
2018-07-08 09:30,50.9117216666667,-96.982525,7.2,10.1,261,981.91,21.8,76,23.27,0.0,1007.50,360.0
2018-07-08 09:40,50.9117383333333,-96.9825316666667,7.7,11.5,266,981.88,21.9,75,23.20,0.0,1007.48,360.0
2018-07-08 09:50,50.9117333333333,-96.9825266666667,8.2,11.8,271,981.94,22.0,75,23.16,0.0,1007.54,360.0
2018-07-08 10:00,50.9117366666667,-96.9825266666667,8.3,10.5,275,982.07,21.9,75,23.11,0.0,1007.67,360.0
2018-07-08 10:10,50.9117366666667,-96.982525,7.3,10.8,267,982.44,21.7,75,23.06,0.0,1008.06,360.0
2018-07-08 10:20,50.9117366666667,-96.982525,8.2,12.4,268,982.66,21.6,74,23.00,0.0,1008.28,360.0
2018-07-08 10:30,50.911735,-96.9825216666667,6.6,9.9,269,982.86,21.2,77,22.93,0.0,1008.51,360.0
2018-07-08 10:40,50.9117333333333,-96.98252,6.6,8.6,277,982.92,20.8,80,22.84,0.0,1008.60,360.0
2018-07-08 10:50,50.9117316666667,-96.9825233333333,7.0,9.2,277,982.89,20.6,81,22.72,0.0,1008.57,360.0
2018-07-08 11:00,50.91173,-96.9825233333333,6.9,9.3,276,982.89,20.5,79,22.63,0.0,1008.58,90.0
2018-07-08 11:10,50.9117316666667,-96.982525,8.2,10.8,283,982.98,20.5,76,22.57,0.0,1008.68,90.0
2018-07-08 11:20,50.91173,-96.9825016666667,8.2,10.2,290,983.21,20.3,74,22.48,0.0,1008.94,90.0
2018-07-08 11:30,50.9117416666667,-96.9825216666667,8.0,9.7,295,983.28,20.2,73,22.41,0.0,1009.01,90.0
2018-07-08 11:40,50.911715,-96.9824883333333,8.1,10.2,295,983.37,20.0,72,22.34,0.0,1009.10,90.0
2018-07-08 11:50,50.9117283333333,-96.9825066666667,7.9,9.7,291,983.63,19.9,72,22.26,0.0,1009.37,90.0
2018-07-08 12:00,50.9117283333333,-96.9825216666667,7.5,9.5,293,983.55,20.1,71,22.20,0.0,1009.30,360.0
2018-07-08 12:10,50.911735,-96.98252,7.1,9.3,293,983.66,20.2,70,22.17,0.0,1009.42,360.0
2018-07-08 12:20,50.911735,-96.9825183333333,8.2,10.3,288,983.97,20.3,69,22.17,0.0,1009.74,360.0
2018-07-08 12:30,50.91174,-96.9825166666667,8.7,11.8,292,984.06,20.5,68,22.17,0.0,1009.85,360.0
2018-07-08 12:40,50.9117216666667,-96.9825266666667,7.7,10.9,292,984.23,20.7,67,22.18,0.0,1010.02,360.0
2018-07-08 12:50,50.9117233333333,-96.9825216666667,8.0,11.3,294,984.28,21.2,65,22.25,0.0,1010.05,360.0
2018-07-08 13:00,50.9117266666667,-96.9825216666667,7.4,11.7,300,984.11,21.1,65,22.31,0.0,1009.88,132.1
2018-07-08 13:10,50.91172,-96.982525,7.6,11.8,298,984.05,20.9,66,22.34,0.0,1009.83,132.1
2018-07-08 13:20,50.9117333333333,-96.982525,8.2,12.9,305,983.91,21.1,65,22.35,0.0,1009.69,132.1
2018-07-08 13:30,50.9117316666667,-96.9825233333333,8.3,13.0,310,983.72,21.5,63,22.39,0.0,1009.49,132.1
2018-07-08 13:40,50.9117283333333,-96.9825233333333,8.1,13.1,313,983.60,21.4,62,22.44,0.0,1009.37,132.1
2018-07-08 13:50,50.91173,-96.9825216666667,7.8,11.8,312,983.51,21.5,61,22.46,0.0,1009.27,132.1
2018-07-08 14:00,50.9117316666667,-96.9825216666667,7.9,12.5,300,983.89,22.2,59,22.51,0.0,1009.62,0.0
2018-07-08 14:10,50.9117316666667,-96.9825216666667,7.8,11.3,292,984.28,22.1,59,22.58,0.0,1010.02,0.0
2018-07-08 14:20,50.9117316666667,-96.98252,5.3,9.3,264,984.74,21.7,60,22.62,0.0,1010.50,0.0
2018-07-08 14:30,50.9117333333333,-96.98252,5.1,8.8,259,984.87,22.3,59,22.64,0.0,1010.60,0.0
2018-07-08 14:40,50.911735,-96.9825216666667,6.5,10.4,272,985.23,22.5,59,22.70,0.0,1010.94,0.0
2018-07-08 14:50,50.911735,-96.9825216666667,4.3,8.0,261,985.34,22.5,59,22.77,0.0,1011.05,0.0
2018-07-08 15:00,50.911735,-96.9825216666667,5.1,10.8,256,985.39,23.3,57,22.84,0.0,1011.08,37.5
2018-07-08 15:10,50.911745,-96.982535,7.9,11.5,266,985.56,23.2,54,22.95,0.0,1011.25,37.5
2018-07-08 15:20,50.9117183333333,-96.9825083333333,8.1,10.8,278,985.53,23.2,54,23.04,0.0,1011.20,37.5
2018-07-08 15:30,50.9117616666667,-96.9825483333333,9.3,12.4,281,985.38,23.5,53,23.14,0.0,1011.03,37.5
2018-07-08 15:40,50.9117333333333,-96.982535,10.8,15.6,288,985.22,23.9,52,23.28,0.0,1010.85,37.5
2018-07-08 15:50,50.9117333333333,-96.982535,11.2,17.3,284,985.23,24.0,51,23.40,0.0,1010.84,37.5
2018-07-08 16:00,50.9117266666667,-96.982535,11.8,18.3,293,985.15,23.9,50,23.51,0.0,1010.76,270.0
2018-07-08 16:10,50.9117416666667,-96.9825566666667,10.7,15.8,291,985.14,24.0,51,23.57,0.0,1010.76,270.0
2018-07-08 16:20,50.9117316666667,-96.9825366666667,11.3,15.9,295,985.23,23.9,49,23.62,0.0,1010.82,270.0
2018-07-08 16:30,50.911735,-96.982535,9.7,14.3,297,985.29,23.9,47,23.64,0.0,1010.88,270.0
2018-07-08 16:40,50.9117333333333,-96.9825366666667,7.5,13.2,296,985.47,23.9,46,23.64,0.0,1011.06,270.0
2018-07-08 16:50,50.9117316666667,-96.982535,7.4,10.8,287,985.44,24.2,47,23.65,0.0,1010.99,270.0
2018-07-08 17:00,50.9117316666667,-96.9825366666667,9.1,12.8,278,985.43,24.6,45,23.71,0.0,1010.96,270.0
2018-07-08 17:10,50.9117316666667,-96.982535,8.4,12.6,286,985.52,25.0,44,23.84,0.0,1011.04,270.0
2018-07-08 17:20,50.9117333333333,-96.982535,10.2,16.2,295,985.44,25.1,43,23.95,0.0,1010.93,270.0
2018-07-08 17:30,50.9117383333333,-96.9825483333333,11.7,17.9,291,985.32,25.1,43,24.07,0.0,1010.79,270.0
2018-07-08 17:40,50.9117333333333,-96.9825416666667,9.0,15.1,284,985.42,25.5,42,24.20,0.0,1010.88,270.0
2018-07-08 17:50,50.911735,-96.9825366666667,10.0,16.1,295,985.50,26.0,39,24.34,0.0,1010.94,270.0
2018-07-08 18:00,50.9117183333333,-96.982525,13.4,19.8,280,985.42,26.0,38,24.48,0.0,1010.86,360.0
2018-07-08 18:10,50.9117233333333,-96.9825283333333,8.9,16.2,288,985.54,26.0,39,24.62,0.0,1010.98,360.0
2018-07-08 18:20,50.911725,-96.9825333333333,9.3,15.1,277,985.57,26.3,39,24.71,0.0,1011.00,360.0
2018-07-08 18:30,50.9117266666667,-96.9825316666667,9.4,18.0,296,985.46,26.4,39,24.79,0.0,1010.88,360.0
2018-07-08 18:40,50.9117266666667,-96.9825316666667,8.3,15.2,278,985.59,26.5,39,24.85,0.0,1011.01,360.0
2018-07-08 18:50,50.9117283333333,-96.9825333333333,8.8,13.8,265,985.59,26.7,38,24.95,0.0,1010.98,360.0
2018-07-08 19:00,50.9117283333333,-96.9825333333333,9.5,16.5,273,985.51,26.7,39,25.06,0.0,1010.88,0.0
2018-07-08 19:10,50.9117283333333,-96.9825333333333,6.8,14.7,257,985.55,27.2,38,25.15,0.0,1010.90,0.0
2018-07-08 19:20,50.9117283333333,-96.9825333333333,8.2,14.4,294,985.45,27.6,36,25.24,0.0,1010.77,0.0
2018-07-08 19:30,50.91173,-96.9825433333333,8.1,15.3,271,985.48,27.7,35,25.35,0.0,1010.78,0.0
2018-07-08 19:40,50.91173,-96.982535,7.2,15.7,279,985.53,27.7,35,25.46,0.0,1010.82,0.0
2018-07-08 19:50,50.9117316666667,-96.982535,10.0,18.0,284,985.50,27.4,35,25.50,0.0,1010.79,0.0
2018-07-08 20:00,50.9117333333333,-96.98253,10.2,17.9,279,985.46,27.8,33,25.62,0.0,1010.73,90.0
2018-07-08 20:10,50.9117333333333,-96.982525,15.5,24.1,299,985.28,27.8,30,25.78,0.0,1010.54,90.0
2018-07-08 20:20,50.91174,-96.9825133333333,15.7,21.8,290,985.40,27.7,29,25.89,0.0,1010.66,90.0
2018-07-08 20:30,50.911735,-96.982515,15.3,21.2,284,985.58,27.4,32,26.00,0.0,1010.85,90.0
2018-07-08 20:40,50.9117333333333,-96.9825133333333,14.4,21.2,286,985.76,27.3,33,26.06,0.0,1011.04,90.0
2018-07-08 20:50,50.9117333333333,-96.9825333333333,13.5,20.5,287,985.95,27.2,34,26.06,0.0,1011.24,90.0
2018-07-08 21:00,50.9117266666667,-96.9825366666667,13.4,19.8,289,986.07,27.1,33,26.05,0.0,1011.34,360.0
2018-07-08 21:10,50.911725,-96.9825283333333,14.5,22.2,293,986.13,27.1,33,26.01,0.0,1011.39,360.0
2018-07-08 21:20,50.9117166666667,-96.9825233333333,14.8,22.4,293,986.21,26.9,33,25.97,0.0,1011.47,360.0
2018-07-08 21:30,50.911735,-96.9825233333333,15.4,21.7,285,986.31,26.9,33,25.98,0.0,1011.57,360.0
2018-07-08 21:40,50.9117333333333,-96.9825583333333,14.0,21.7,288,986.41,26.8,34,25.98,0.0,1011.70,360.0
2018-07-08 21:50,50.91173,-96.9825533333333,14.8,21.6,284,986.52,26.7,33,25.95,0.0,1011.79,360.0
2018-07-08 22:00,50.9117316666667,-96.9825033333333,12.4,20.3,295,986.81,26.8,33,25.94,0.0,1012.09,90.0
2018-07-08 22:10,50.9117333333333,-96.9825183333333,13.7,22.0,287,986.83,26.7,32,25.90,0.0,1012.12,90.0
2018-07-08 22:20,50.9117383333333,-96.9825283333333,12.8,17.6,283,986.93,26.7,33,25.89,0.0,1012.23,90.0
2018-07-08 22:30,50.91173,-96.98253,11.0,17.0,275,987.03,26.5,34,25.88,0.0,1012.35,90.0
2018-07-08 22:40,50.9117316666667,-96.9825283333333,12.4,18.8,284,986.97,26.5,35,25.84,0.0,1012.28,90.0
2018-07-08 22:50,50.9117333333333,-96.9825316666667,10.9,17.4,292,987.04,26.3,35,25.82,0.0,1012.37,90.0
2018-07-08 23:00,50.91174,-96.9825533333333,10.7,17.3,298,987.00,26.4,34,25.77,0.0,1012.33,305.8
2018-07-08 23:10,50.9117416666667,-96.9825233333333,10.1,15.1,302,987.06,26.3,35,25.71,0.0,1012.41,305.8
2018-07-08 23:20,50.9117416666667,-96.9825233333333,11.1,16.8,286,987.11,26.2,35,25.66,0.0,1012.46,305.8
2018-07-08 23:30,50.91174,-96.982525,10.0,14.7,294,987.27,26.2,36,25.64,0.0,1012.63,305.8
2018-07-08 23:40,50.91174,-96.9825216666667,8.0,12.8,297,987.42,26.3,36,25.61,0.0,1012.78,305.8
